Location: Bonham
(33.5773°N, 96.1783°W)
Time: 21:59:46
(UTC+00:00)

Cosmos 2344 - Pass Details

Date: 14 August 2025
Orbit: 1194 x 3048 km, 63.3° (Epoch: 12 April)

Event Time Altitude Azimuth Distance (km) Brightness Sun altitude
Exits shadow 10:51:07 13° 234° (SW) 3,262 5.1 -11.5°
Maximum altitude 10:58:07 48° 305° (NW) 1,580 3.9 -10.2°
Drops below altitude 10° 11:05:02 10° 20° (NNE) 3,131 6.3 -8.9°
Sets 11:07:50 0° 26° (NNE) 4,125 7.1 -8.4°
